Year,Month,Day,Hour,Minute,Value (Times are PST for insolation in W/m^2)
2007,08,03,00,00,0.00
2007,08,03,00,01,0.00
2007,08,03,00,02,0.00
2007,08,03,00,03,0.00
2007,08,03,00,04,0.00
2007,08,03,00,05,0.00
2007,08,03,00,06,0.00
2007,08,03,00,07,0.00
2007,08,03,00,08,0.00
2007,08,03,00,09,0.00
2007,08,03,00,10,0.00
2007,08,03,00,11,0.00
2007,08,03,00,12,0.00
2007,08,03,00,13,0.00
2007,08,03,01,02,0.00
2007,08,03,01,03,0.00
2007,08,03,01,04,0.00
2007,08,03,01,05,0.00
2007,08,03,01,06,0.00
2007,08,03,01,07,0.00
2007,08,03,01,08,0.00
2007,08,03,01,09,0.00
2007,08,03,01,10,0.00
2007,08,03,01,11,0.00
2007,08,03,01,12,0.00
2007,08,03,01,13,0.00
2007,08,03,01,14,0.00
2007,08,03,01,15,0.00
2007,08,03,01,16,0.00
2007,08,03,01,17,0.00
2007,08,03,01,18,0.00
2007,08,03,01,19,0.00
2007,08,03,01,20,0.00
2007,08,03,01,21,0.00
2007,08,03,01,22,0.00
2007,08,03,01,23,0.00
2007,08,03,01,24,0.00
2007,08,03,01,25,0.00
2007,08,03,01,26,0.00
2007,08,03,01,27,0.00
2007,08,03,01,28,0.00
2007,08,03,01,29,0.00
2007,08,03,01,30,0.00
2007,08,03,01,31,0.00
2007,08,03,01,32,0.00
2007,08,03,01,33,0.00
2007,08,03,01,34,0.00
2007,08,03,01,35,0.00
2007,08,03,01,36,0.00
2007,08,03,01,37,0.00
2007,08,03,01,38,0.00
2007,08,03,01,39,0.00
2007,08,03,01,40,0.00
2007,08,03,01,41,0.00
2007,08,03,01,42,0.00
2007,08,03,01,43,0.00
2007,08,03,01,44,0.00
2007,08,03,01,45,0.00
2007,08,03,01,46,0.00
2007,08,03,01,47,0.00
2007,08,03,01,48,0.00
2007,08,03,01,49,0.00
2007,08,03,01,50,0.00
2007,08,03,01,51,0.00
2007,08,03,01,52,0.00
2007,08,03,01,53,0.00
2007,08,03,01,54,0.00
2007,08,03,01,55,0.00
2007,08,03,01,56,0.00
2007,08,03,01,57,0.00
2007,08,03,01,58,0.00
2007,08,03,01,59,0.00
2007,08,03,02,00,0.00
2007,08,03,02,01,0.00
2007,08,03,02,02,0.00
2007,08,03,02,03,0.00
2007,08,03,02,04,0.00
2007,08,03,02,05,0.00
2007,08,03,02,06,0.00
2007,08,03,02,07,0.00
2007,08,03,02,08,0.00
2007,08,03,02,09,0.00
2007,08,03,02,10,0.00
2007,08,03,02,11,0.00
2007,08,03,02,12,0.00
2007,08,03,02,13,0.00
2007,08,03,02,14,0.00
2007,08,03,02,15,0.00
2007,08,03,02,16,0.00
2007,08,03,02,17,0.00
2007,08,03,02,18,0.00
2007,08,03,02,19,0.00
2007,08,03,02,20,0.00
2007,08,03,02,21,0.00
2007,08,03,02,22,0.00
2007,08,03,02,23,0.00
2007,08,03,02,24,0.00
2007,08,03,02,25,0.00
2007,08,03,02,26,0.00
2007,08,03,02,27,0.00
2007,08,03,02,28,0.00
2007,08,03,02,29,0.00
2007,08,03,02,30,0.00
2007,08,03,02,31,0.00
2007,08,03,02,32,0.00
2007,08,03,02,33,0.00
2007,08,03,02,34,0.00
2007,08,03,02,35,0.00
2007,08,03,02,36,0.00
2007,08,03,02,37,0.00
2007,08,03,02,38,0.00
2007,08,03,02,39,0.00
2007,08,03,02,40,0.00
2007,08,03,02,41,0.00
2007,08,03,02,42,0.00
2007,08,03,02,43,0.00
2007,08,03,02,44,0.00
2007,08,03,02,45,0.00
2007,08,03,02,46,0.00
2007,08,03,02,47,0.00
2007,08,03,02,48,0.00
2007,08,03,02,49,0.00
2007,08,03,02,50,0.00
2007,08,03,02,51,0.00
2007,08,03,02,52,0.00
2007,08,03,02,53,0.00
2007,08,03,02,54,0.00
2007,08,03,02,55,0.00
2007,08,03,02,56,0.00
2007,08,03,02,57,0.00
2007,08,03,02,58,0.00
2007,08,03,02,59,0.00
2007,08,03,03,00,0.00
2007,08,03,03,01,0.00
2007,08,03,03,02,0.00
2007,08,03,03,03,0.00
2007,08,03,03,04,0.00
2007,08,03,03,05,0.00
2007,08,03,03,06,0.00
2007,08,03,03,07,0.00
2007,08,03,03,08,0.00
2007,08,03,03,09,0.00
2007,08,03,03,10,0.00
2007,08,03,03,11,0.00
2007,08,03,03,12,0.00
2007,08,03,03,13,0.00
2007,08,03,03,14,0.00
2007,08,03,03,15,0.00
2007,08,03,03,16,0.00
2007,08,03,03,17,0.00
2007,08,03,03,18,0.00
2007,08,03,03,19,0.00
2007,08,03,03,20,0.00
2007,08,03,03,21,0.00
2007,08,03,03,22,0.00
2007,08,03,03,23,0.00
2007,08,03,03,24,0.00
2007,08,03,03,25,0.00
2007,08,03,03,26,0.00
2007,08,03,03,27,0.00
2007,08,03,03,28,0.00
2007,08,03,03,29,0.00
2007,08,03,03,30,0.00
2007,08,03,03,31,0.00
2007,08,03,03,32,0.00
2007,08,03,03,33,0.00
2007,08,03,03,34,0.00
2007,08,03,03,35,0.00
2007,08,03,03,36,0.00
2007,08,03,03,37,0.00
2007,08,03,03,38,0.00
2007,08,03,03,39,0.00
2007,08,03,03,40,0.00
2007,08,03,03,41,0.00
2007,08,03,03,42,0.00
2007,08,03,03,43,0.00
2007,08,03,03,44,0.00
2007,08,03,03,45,0.00
2007,08,03,03,46,0.00
2007,08,03,03,47,0.00
2007,08,03,03,48,0.00
2007,08,03,03,49,0.00
2007,08,03,03,50,0.00
2007,08,03,03,51,0.00
2007,08,03,03,52,0.00
2007,08,03,03,53,0.00
2007,08,03,03,54,0.00
2007,08,03,03,55,0.00
2007,08,03,03,56,0.00
2007,08,03,03,57,0.00
2007,08,03,03,58,0.00
2007,08,03,03,59,0.00
2007,08,03,04,00,0.00
2007,08,03,04,01,0.00
2007,08,03,04,02,0.00
2007,08,03,04,03,0.00
2007,08,03,04,04,0.00
2007,08,03,04,05,0.00
2007,08,03,04,06,0.00
2007,08,03,04,07,0.00
2007,08,03,04,08,0.00
2007,08,03,04,09,0.00
2007,08,03,04,10,0.00
2007,08,03,04,11,0.00
2007,08,03,04,12,0.00
2007,08,03,04,13,0.00
2007,08,03,04,14,0.00
2007,08,03,04,15,0.00
2007,08,03,04,16,0.00
2007,08,03,04,17,0.00
2007,08,03,04,18,0.00
2007,08,03,04,19,0.00
2007,08,03,04,20,0.00
2007,08,03,04,21,0.00
2007,08,03,04,22,0.00
2007,08,03,04,23,0.00
2007,08,03,04,24,0.00
2007,08,03,04,25,0.00
2007,08,03,04,26,0.00
2007,08,03,04,27,0.00
2007,08,03,04,28,0.00
2007,08,03,04,29,0.00
2007,08,03,04,30,0.00
2007,08,03,04,31,0.00
2007,08,03,04,32,0.00
2007,08,03,04,33,0.00
2007,08,03,04,34,0.00
2007,08,03,04,35,0.00
2007,08,03,04,36,0.00
2007,08,03,04,37,0.00
2007,08,03,04,38,0.00
2007,08,03,04,39,0.00
2007,08,03,04,40,0.00
2007,08,03,04,41,0.00
2007,08,03,04,42,0.00
2007,08,03,04,43,0.00
2007,08,03,04,44,0.00
2007,08,03,04,45,0.00
2007,08,03,04,46,0.00
2007,08,03,04,47,0.00
2007,08,03,04,48,0.00
2007,08,03,04,49,0.00
2007,08,03,04,50,0.00
2007,08,03,04,51,0.00
2007,08,03,04,52,0.00
2007,08,03,04,53,0.00
2007,08,03,04,54,0.00
2007,08,03,04,55,0.00
2007,08,03,04,56,0.00
2007,08,03,04,57,0.00
2007,08,03,04,58,0.00
2007,08,03,04,59,0.00
2007,08,03,05,00,0.00
2007,08,03,05,01,0.00
2007,08,03,05,02,0.00
2007,08,03,05,03,0.00
2007,08,03,05,04,0.00
2007,08,03,05,05,0.00
2007,08,03,05,06,0.00
2007,08,03,05,07,0.00
2007,08,03,05,08,0.00
2007,08,03,05,09,0.00
2007,08,03,05,10,0.00
2007,08,03,05,11,0.00
2007,08,03,05,12,0.00
2007,08,03,05,13,0.00
2007,08,03,05,14,0.00
2007,08,03,05,15,0.00
2007,08,03,05,16,0.00
2007,08,03,05,17,0.00
2007,08,03,05,18,0.00
2007,08,03,05,19,0.00
2007,08,03,05,20,0.00
2007,08,03,05,21,0.00
2007,08,03,05,22,0.00
2007,08,03,05,23,0.00
2007,08,03,05,24,0.00
2007,08,03,05,25,0.00
2007,08,03,05,26,0.00
2007,08,03,05,27,0.00
2007,08,03,05,28,0.00
2007,08,03,05,29,0.00
2007,08,03,05,30,0.00
2007,08,03,05,31,0.00
2007,08,03,05,32,0.00
2007,08,03,05,33,0.00
2007,08,03,05,34,0.00
2007,08,03,05,35,0.00
2007,08,03,05,36,0.00
2007,08,03,05,37,0.00
2007,08,03,05,38,0.00
2007,08,03,05,39,0.00
2007,08,03,05,40,0.00
2007,08,03,05,41,0.00
2007,08,03,05,42,0.00
2007,08,03,05,43,0.00
2007,08,03,05,44,0.00
2007,08,03,05,45,0.00
2007,08,03,05,46,0.00
2007,08,03,05,47,0.00
2007,08,03,05,48,0.00
2007,08,03,05,49,0.00
2007,08,03,05,50,0.00
2007,08,03,05,51,0.00
2007,08,03,05,52,0.00
2007,08,03,05,53,0.00
2007,08,03,05,54,0.00
2007,08,03,05,55,0.00
2007,08,03,05,56,0.00
2007,08,03,05,57,0.00
2007,08,03,05,58,0.50
2007,08,03,05,59,5.00
2007,08,03,06,00,5.00
2007,08,03,06,01,5.00
2007,08,03,06,02,5.00
2007,08,03,06,03,5.30
2007,08,03,06,04,7.00
2007,08,03,06,05,7.00
2007,08,03,06,06,7.00
2007,08,03,06,07,7.00
2007,08,03,06,08,7.30
2007,08,03,06,09,9.00
2007,08,03,06,10,9.00
2007,08,03,06,11,9.00
2007,08,03,06,12,9.00
2007,08,03,06,13,9.00
2007,08,03,06,14,9.00
2007,08,03,06,15,9.20
2007,08,03,06,16,11.00
2007,08,03,06,17,11.00
2007,08,03,06,18,11.00
2007,08,03,06,19,11.00
2007,08,03,06,20,11.00
2007,08,03,06,21,11.10
2007,08,03,06,22,12.00
2007,08,03,06,23,12.00
2007,08,03,06,24,12.00
2007,08,03,06,25,12.20
2007,08,03,06,26,14.00
2007,08,03,06,27,14.00
2007,08,03,06,28,14.00
2007,08,03,06,29,14.20
2007,08,03,06,30,16.00
2007,08,03,06,31,16.00
2007,08,03,06,32,16.00
2007,08,03,06,33,16.00
2007,08,03,06,34,16.20
2007,08,03,06,35,18.00
2007,08,03,06,36,18.00
2007,08,03,06,37,18.00
2007,08,03,06,38,18.00
2007,08,03,06,39,18.00
2007,08,03,06,40,18.00
2007,08,03,06,41,18.10
2007,08,03,06,42,19.00
2007,08,03,06,43,19.00
2007,08,03,06,44,19.00
2007,08,03,06,45,19.00
2007,08,03,06,46,19.00
2007,08,03,06,47,19.00
2007,08,03,06,48,19.00
2007,08,03,06,49,19.20
2007,08,03,06,50,21.00
2007,08,03,06,51,21.00
2007,08,03,06,52,21.00
2007,08,03,06,53,21.00
2007,08,03,06,54,21.00
2007,08,03,06,55,21.00
2007,08,03,06,56,21.00
2007,08,03,06,57,21.00
2007,08,03,06,58,21.20
2007,08,03,06,59,23.00
2007,08,03,07,00,23.00
2007,08,03,07,01,23.00
2007,08,03,07,02,23.00
2007,08,03,07,03,23.00
2007,08,03,07,04,23.00
2007,08,03,07,05,23.00
2007,08,03,07,06,23.00
2007,08,03,07,07,23.20
2007,08,03,07,08,25.00
2007,08,03,07,09,25.00
2007,08,03,07,10,25.00
2007,08,03,07,11,25.00
2007,08,03,07,12,25.00
2007,08,03,07,13,25.00
2007,08,03,07,14,25.00
2007,08,03,07,15,25.00
2007,08,03,07,16,25.20
2007,08,03,07,17,26.00
2007,08,03,07,18,26.00
2007,08,03,07,19,26.00
2007,08,03,07,20,26.00
2007,08,03,07,21,26.00
2007,08,03,07,22,26.00
2007,08,03,07,23,26.00
2007,08,03,07,24,26.20
2007,08,03,07,25,28.00
2007,08,03,07,26,28.00
2007,08,03,07,27,28.00
2007,08,03,07,28,28.00
2007,08,03,07,29,28.00
2007,08,03,07,30,28.00
2007,08,03,07,31,28.00
2007,08,03,07,32,28.00
2007,08,03,07,33,28.00
2007,08,03,07,34,28.00
2007,08,03,07,35,28.20
2007,08,03,07,36,30.00
2007,08,03,07,37,30.00
2007,08,03,07,38,30.00
2007,08,03,07,39,30.00
2007,08,03,07,40,30.60
2007,08,03,07,41,35.20
2007,08,03,07,42,37.40
2007,08,03,07,43,39.10
2007,08,03,07,44,32.10
2007,08,03,07,45,37.20
2007,08,03,07,46,73.90
2007,08,03,07,47,113.20
2007,08,03,07,48,138.30
2007,08,03,07,49,216.10
2007,08,03,07,50,239.40
2007,08,03,07,51,236.80
2007,08,03,07,52,178.70
2007,08,03,07,53,166.50
2007,08,03,07,54,245.40
2007,08,03,07,55,269.90
2007,08,03,07,56,292.30
2007,08,03,07,57,295.20
2007,08,03,07,58,297.50
2007,08,03,07,59,301.40
2007,08,03,08,00,304.20
2007,08,03,08,01,306.20
2007,08,03,08,02,308.40
2007,08,03,08,03,311.20
2007,08,03,08,04,313.30
2007,08,03,08,05,316.50
2007,08,03,08,06,320.20
2007,08,03,08,07,322.50
2007,08,03,08,08,325.20
2007,08,03,08,09,327.40
2007,08,03,08,10,330.00
2007,08,03,08,11,330.90
2007,08,03,08,12,338.10
2007,08,03,08,13,339.20
2007,08,03,08,14,341.50
2007,08,03,08,15,345.40
2007,08,03,08,16,348.20
2007,08,03,08,17,350.40
2007,08,03,08,18,353.20
2007,08,03,08,19,355.50
2007,08,03,08,20,359.10
2007,08,03,08,21,360.40
2007,08,03,08,22,364.20
2007,08,03,08,23,366.40
2007,08,03,08,24,369.50
2007,08,03,08,25,373.10
2007,08,03,08,26,374.50
2007,08,03,08,27,378.20
2007,08,03,08,28,380.40
2007,08,03,08,29,383.20
2007,08,03,08,30,385.40
2007,08,03,08,31,388.20
2007,08,03,08,32,390.50
2007,08,03,08,33,394.20
2007,08,03,08,34,396.60
2007,08,03,08,35,401.20
2007,08,03,08,36,403.30
2007,08,03,08,37,406.20
2007,08,03,08,38,408.40
2007,08,03,08,39,411.20
2007,08,03,08,40,413.40
2007,08,03,08,41,417.40
2007,08,03,08,42,420.20
2007,08,03,08,43,422.30
2007,08,03,08,44,425.20
2007,08,03,08,45,427.50
2007,08,03,08,46,431.40
2007,08,03,08,47,434.20
2007,08,03,08,48,436.20
2007,08,03,08,49,438.50
2007,08,03,08,50,441.50
2007,08,03,08,51,445.50
2007,08,03,08,52,448.20
2007,08,03,08,53,450.50
2007,08,03,08,54,454.10
2007,08,03,08,55,455.40
2007,08,03,08,56,459.30
2007,08,03,08,57,462.50
2007,08,03,08,58,466.20
2007,08,03,08,59,468.40
2007,08,03,09,00,471.30
2007,08,03,09,01,473.00
2007,08,03,09,02,473.60
2007,08,03,09,03,478.50
2007,08,03,09,04,482.50
2007,08,03,09,05,487.40
2007,08,03,09,06,490.50
2007,08,03,09,07,494.60
2007,08,03,09,08,499.50
2007,08,03,09,09,504.70
2007,08,03,09,10,510.60
2007,08,03,09,11,515.80
2007,08,03,09,12,523.10
2007,08,03,09,13,531.70
2007,08,03,09,14,538.80
2007,08,03,09,15,535.90
2007,08,03,09,16,477.10
2007,08,03,09,17,557.70
2007,08,03,09,18,547.10
2007,08,03,09,19,538.90
2007,08,03,09,20,530.60
2007,08,03,09,21,526.90
2007,08,03,09,22,526.40
2007,08,03,09,23,529.20
2007,08,03,09,24,531.40
2007,08,03,09,25,534.30
2007,08,03,09,26,536.60
2007,08,03,09,27,541.30
2007,08,03,09,28,543.20
2007,08,03,09,29,545.20
2007,08,03,09,30,547.50
2007,08,03,09,31,550.50
2007,08,03,09,32,554.40
2007,08,03,09,33,557.50
2007,08,03,09,34,561.40
2007,08,03,09,35,564.70
2007,08,03,09,36,568.00
2007,08,03,09,37,568.30
2007,08,03,09,38,571.70
2007,08,03,09,39,577.40
2007,08,03,09,40,580.00
2007,08,03,09,41,580.20
2007,08,03,09,42,582.40
2007,08,03,09,43,585.80
2007,08,03,09,44,592.00
2007,08,03,09,45,592.20
2007,08,03,09,46,594.50
2007,08,03,09,47,598.00
2007,08,03,09,48,597.20
2007,08,03,09,49,592.40
2007,08,03,09,50,603.20
2007,08,03,09,51,605.00
2007,08,03,09,52,584.60
2007,08,03,09,53,401.00
2007,08,03,09,54,434.10
2007,08,03,09,55,682.00
2007,08,03,09,56,682.00
2007,08,03,09,57,618.70
2007,08,03,09,58,144.00
2007,08,03,09,59,144.00
2007,08,03,10,00,144.00
2007,08,03,10,01,144.00
2007,08,03,10,02,143.10
2007,08,03,10,03,137.70
2007,08,03,10,04,162.00
2007,08,03,10,05,216.40
2007,08,03,10,06,624.00
2007,08,03,10,07,624.00
2007,08,03,10,08,624.00
2007,08,03,10,09,630.60
2007,08,03,10,10,680.00
2007,08,03,10,11,680.00
2007,08,03,10,12,681.50
2007,08,03,10,13,691.50
2007,08,03,10,14,710.00
2007,08,03,10,15,710.00
2007,08,03,10,16,710.00
2007,08,03,10,17,707.40
2007,08,03,10,18,685.60
2007,08,03,10,19,675.50
2007,08,03,10,20,680.00
2007,08,03,10,21,680.00
2007,08,03,10,22,681.00
2007,08,03,10,23,687.90
2007,08,03,10,24,680.40
2007,08,03,10,25,683.40
2007,08,03,10,26,679.00
2007,08,03,10,27,679.00
2007,08,03,10,28,679.10
2007,08,03,10,29,680.30
2007,08,03,10,30,682.50
2007,08,03,10,31,686.40
2007,08,03,10,32,689.00
2007,08,03,10,33,689.20
2007,08,03,10,34,691.20
2007,08,03,10,35,693.10
2007,08,03,10,36,694.60
2007,08,03,10,37,700.00
2007,08,03,10,38,700.10
2007,08,03,10,39,701.20
2007,08,03,10,40,703.30
2007,08,03,10,41,705.20
2007,08,03,10,42,707.50
2007,08,03,10,43,710.00
2007,08,03,10,44,710.40
2007,08,03,10,45,714.10
2007,08,03,10,46,715.20
2007,08,03,10,47,717.00
2007,08,03,10,48,703.00
2007,08,03,10,49,581.30
2007,08,03,10,50,598.90
2007,08,03,10,51,568.00
2007,08,03,10,52,595.20
2007,08,03,10,53,730.70
2007,08,03,10,54,729.20
2007,08,03,10,55,725.80
2007,08,03,10,56,692.70
2007,08,03,10,57,719.70
2007,08,03,10,58,708.30
2007,08,03,10,59,695.40
2007,08,03,11,00,717.00
2007,08,03,11,01,717.30
2007,08,03,11,02,722.80
2007,08,03,11,03,751.10
2007,08,03,11,04,752.80
2007,08,03,11,05,759.60
2007,08,03,11,06,767.30
2007,08,03,11,07,782.20
2007,08,03,11,08,799.60
2007,08,03,11,09,813.20
2007,08,03,11,10,828.80
2007,08,03,11,11,872.80
2007,08,03,11,12,920.70
2007,08,03,11,13,969.40
2007,08,03,11,14,1021.00
2007,08,03,11,15,1021.00
2007,08,03,11,16,977.70
2007,08,03,11,17,631.00
2007,08,03,11,18,698.60
2007,08,03,11,19,1206.00
2007,08,03,11,20,1093.80
2007,08,03,11,21,527.30
2007,08,03,11,22,497.10
2007,08,03,11,23,482.90
2007,08,03,11,24,482.80
2007,08,03,11,25,487.70
2007,08,03,11,26,475.90
2007,08,03,11,27,474.80
2007,08,03,11,28,475.30
2007,08,03,11,29,496.00
2007,08,03,11,30,497.90
2007,08,03,11,31,507.40
2007,08,03,11,32,473.30
2007,08,03,11,33,475.90
2007,08,03,11,34,475.00
2007,08,03,11,35,475.00
2007,08,03,11,36,489.20
2007,08,03,11,37,608.30
2007,08,03,11,38,645.70
2007,08,03,11,39,726.00
2007,08,03,11,40,703.00
2007,08,03,11,41,506.10
2007,08,03,11,42,580.40
2007,08,03,11,43,568.00
2007,08,03,11,44,544.80
2007,08,03,11,45,429.20
2007,08,03,11,46,433.50
2007,08,03,11,47,452.30
2007,08,03,11,48,450.90
2007,08,03,11,49,420.50
2007,08,03,11,50,424.00
2007,08,03,11,51,424.00
2007,08,03,11,52,424.00
2007,08,03,11,53,424.10
2007,08,03,11,54,427.10
2007,08,03,11,55,442.60
2007,08,03,11,56,435.10
2007,08,03,11,57,403.10
2007,08,03,11,58,379.00
2007,08,03,11,59,362.90
2007,08,03,12,00,352.20
2007,08,03,12,01,345.80
2007,08,03,12,02,345.00
2007,08,03,12,03,345.00
2007,08,03,12,04,345.30
2007,08,03,12,05,348.00
2007,08,03,12,06,348.20
2007,08,03,12,07,350.30
2007,08,03,12,08,354.00
2007,08,03,12,09,363.80
2007,08,03,12,10,376.10
2007,08,03,12,11,396.90
2007,08,03,12,12,375.30
2007,08,03,12,13,354.00
2007,08,03,12,14,345.10
2007,08,03,12,15,337.30
2007,08,03,12,16,333.80
2007,08,03,12,17,332.00
2007,08,03,12,18,332.60
2007,08,03,12,19,338.90
2007,08,03,12,20,347.50
2007,08,03,12,21,360.20
2007,08,03,12,22,370.10
2007,08,03,12,23,378.90
2007,08,03,12,24,388.60
2007,08,03,12,25,401.00
2007,08,03,12,26,408.00
2007,08,03,12,27,442.30
2007,08,03,12,28,443.00
2007,08,03,12,29,473.00
2007,08,03,12,30,473.00
2007,08,03,12,31,476.00
2007,08,03,12,32,503.00
2007,08,03,12,33,503.00
2007,08,03,12,34,503.00
2007,08,03,12,35,503.00
2007,08,03,12,36,516.40
2007,08,03,12,37,617.00
2007,08,03,12,38,617.00
2007,08,03,12,39,694.50
2007,08,03,12,40,1276.00
2007,08,03,12,41,1276.00
2007,08,03,12,42,1276.00
2007,08,03,12,43,1276.00
2007,08,03,12,44,1186.70
2007,08,03,12,45,379.90
2007,08,03,12,46,355.40
2007,08,03,12,47,342.00
2007,08,03,12,48,333.60
2007,08,03,12,49,330.40
2007,08,03,12,50,334.60
2007,08,03,12,51,340.80
2007,08,03,12,52,352.70
2007,08,03,12,53,367.30
2007,08,03,12,54,375.40
2007,08,03,12,55,387.80
2007,08,03,12,56,395.70
2007,08,03,12,57,411.00
2007,08,03,12,58,411.00
2007,08,03,12,59,411.00
2007,08,03,13,00,411.00
2007,08,03,13,01,411.00
2007,08,03,13,02,411.00
2007,08,03,13,03,411.00
2007,08,03,13,04,407.50
2007,08,03,13,05,388.00
2007,08,03,13,06,372.80
2007,08,03,13,07,372.70
2007,08,03,13,08,385.70
2007,08,03,13,09,375.30
2007,08,03,13,10,385.20
2007,08,03,13,11,387.40
2007,08,03,13,12,392.80
2007,08,03,13,13,418.00
2007,08,03,13,14,418.00
2007,08,03,13,15,467.60
2007,08,03,13,16,840.00
2007,08,03,13,17,840.00
2007,08,03,13,18,822.10
2007,08,03,13,19,679.00
2007,08,03,13,20,675.00
2007,08,03,13,21,643.00
2007,08,03,13,22,643.00
2007,08,03,13,23,643.00
2007,08,03,13,24,595.80
2007,08,03,13,25,358.40
2007,08,03,13,26,343.80
2007,08,03,13,27,326.10
2007,08,03,13,28,318.70
2007,08,03,13,29,323.70
2007,08,03,13,30,333.20
2007,08,03,13,31,344.60
2007,08,03,13,32,360.10
2007,08,03,13,33,385.30
2007,08,03,13,34,406.00
2007,08,03,13,35,407.60
2007,08,03,13,36,425.40
2007,08,03,13,37,469.00
2007,08,03,13,38,469.00
2007,08,03,13,39,544.60
2007,08,03,13,40,1210.90
2007,08,03,13,41,1136.00
2007,08,03,13,42,1060.30
2007,08,03,13,43,455.00
2007,08,03,13,44,455.00
2007,08,03,13,45,455.00
2007,08,03,13,46,455.00
2007,08,03,13,47,455.00
2007,08,03,13,48,468.30
2007,08,03,13,49,574.00
2007,08,03,13,50,628.00
2007,08,03,13,51,684.20
2007,08,03,13,52,1106.00
2007,08,03,13,53,1018.70
2007,08,03,13,54,364.00
2007,08,03,13,55,364.00
2007,08,03,13,56,444.60
2007,08,03,13,57,1048.20
2007,08,03,13,58,1041.60
2007,08,03,13,59,1046.00
2007,08,03,14,00,1046.00
2007,08,03,14,01,966.70
2007,08,03,14,02,570.00
2007,08,03,14,03,615.40
2007,08,03,14,04,954.60
2007,08,03,14,05,942.20
2007,08,03,14,06,944.30
2007,08,03,14,07,947.00
2007,08,03,14,08,945.40
2007,08,03,14,09,930.10
2007,08,03,14,10,904.50
2007,08,03,14,11,886.30
2007,08,03,14,12,889.00
2007,08,03,14,13,889.00
2007,08,03,14,14,888.70
2007,08,03,14,15,886.60
2007,08,03,14,16,890.70
2007,08,03,14,17,889.00
2007,08,03,14,18,889.00
2007,08,03,14,19,889.50
2007,08,03,14,20,893.20
2007,08,03,14,21,894.80
2007,08,03,14,22,892.80
2007,08,03,14,23,890.20
2007,08,03,14,24,885.50
2007,08,03,14,25,881.50
2007,08,03,14,26,876.50
2007,08,03,14,27,874.00
2007,08,03,14,28,874.10
2007,08,03,14,29,875.30
2007,08,03,14,30,877.20
2007,08,03,14,31,879.00
2007,08,03,14,32,879.20
2007,08,03,14,33,881.90
2007,08,03,14,34,890.30
2007,08,03,14,35,902.00
2007,08,03,14,36,902.80
2007,08,03,14,37,909.50
2007,08,03,14,38,912.50
2007,08,03,14,39,915.60
2007,08,03,14,40,910.30
2007,08,03,14,41,900.50
2007,08,03,14,42,889.00
2007,08,03,14,43,889.00
2007,08,03,14,44,887.00
2007,08,03,14,45,871.10
2007,08,03,14,46,863.20
2007,08,03,14,47,865.00
2007,08,03,14,48,865.00
2007,08,03,14,49,865.00
2007,08,03,14,50,865.00
2007,08,03,14,51,865.00
2007,08,03,14,52,860.60
2007,08,03,14,53,827.80
2007,08,03,14,54,825.70
2007,08,03,14,55,822.60
2007,08,03,14,56,819.00
2007,08,03,14,57,818.80
2007,08,03,14,58,817.00
2007,08,03,14,59,817.00
2007,08,03,15,00,816.60
2007,08,03,15,01,814.00
2007,08,03,15,02,813.50
2007,08,03,15,03,810.20
2007,08,03,15,04,811.50
2007,08,03,15,05,807.20
2007,08,03,15,06,809.00
2007,08,03,15,07,809.20
2007,08,03,15,08,809.50
2007,08,03,15,09,807.00
2007,08,03,15,10,807.70
2007,08,03,15,11,812.80
2007,08,03,15,12,820.10
2007,08,03,15,13,830.10
2007,08,03,15,14,847.60
2007,08,03,15,15,826.00
2007,08,03,15,16,826.00
2007,08,03,15,17,826.00
2007,08,03,15,18,826.00
2007,08,03,15,19,795.30
2007,08,03,15,20,525.80
2007,08,03,15,21,580.00
2007,08,03,15,22,543.80
2007,08,03,15,23,272.00
2007,08,03,15,24,378.50
2007,08,03,15,25,911.00
2007,08,03,15,26,911.00
2007,08,03,15,27,911.00
2007,08,03,15,28,911.00
2007,08,03,15,29,914.10
2007,08,03,15,30,942.00
2007,08,03,15,31,942.00
2007,08,03,15,32,942.00
2007,08,03,15,33,942.00
2007,08,03,15,34,942.00
2007,08,03,15,35,870.00
2007,08,03,15,36,294.00
2007,08,03,15,37,294.00
2007,08,03,15,38,294.00
2007,08,03,15,39,294.00
2007,08,03,15,40,309.80
2007,08,03,15,41,452.00
2007,08,03,15,42,434.20
2007,08,03,15,43,283.50
2007,08,03,15,44,220.00
2007,08,03,15,45,286.10
2007,08,03,15,46,781.00
2007,08,03,15,47,771.30
2007,08,03,15,48,765.40
2007,08,03,15,49,760.80
2007,08,03,15,50,758.70
2007,08,03,15,51,756.20
2007,08,03,15,52,757.80
2007,08,03,15,53,757.10
2007,08,03,15,54,766.00
2007,08,03,15,55,775.50
2007,08,03,15,56,780.00
2007,08,03,15,57,782.70
2007,08,03,15,58,805.50
2007,08,03,15,59,826.00
2007,08,03,16,00,809.60
2007,08,03,16,01,807.00
2007,08,03,16,02,808.80
2007,08,03,16,03,819.20
2007,08,03,16,04,787.10
2007,08,03,16,05,756.00
2007,08,03,16,06,705.30
2007,08,03,16,07,325.00
2007,08,03,16,08,325.00
2007,08,03,16,09,325.00
2007,08,03,16,10,371.10
2007,08,03,16,11,784.80
2007,08,03,16,12,775.00
2007,08,03,16,13,774.20
2007,08,03,16,14,768.00
2007,08,03,16,15,768.00
2007,08,03,16,16,768.00
2007,08,03,16,17,756.90
2007,08,03,16,18,660.20
2007,08,03,16,19,685.30
2007,08,03,16,20,679.70
2007,08,03,16,21,676.30
2007,08,03,16,22,670.90
2007,08,03,16,23,669.80
2007,08,03,16,24,667.50
2007,08,03,16,25,663.70
2007,08,03,16,26,660.60
2007,08,03,16,27,656.90
2007,08,03,16,28,655.80
2007,08,03,16,29,653.60
2007,08,03,16,30,650.00
2007,08,03,16,31,649.90
2007,08,03,16,32,648.80
2007,08,03,16,33,646.40
2007,08,03,16,34,641.80
2007,08,03,16,35,639.60
2007,08,03,16,36,636.00
2007,08,03,16,37,635.90
2007,08,03,16,38,634.30
2007,08,03,16,39,629.00
2007,08,03,16,40,628.70
2007,08,03,16,41,625.80
2007,08,03,16,42,623.80
2007,08,03,16,43,621.90
2007,08,03,16,44,620.80
2007,08,03,16,45,619.00
2007,08,03,16,46,618.50
2007,08,03,16,47,614.50
2007,08,03,16,48,610.00
2007,08,03,16,49,610.00
2007,08,03,16,50,609.60
2007,08,03,16,51,602.80
2007,08,03,16,52,600.40
2007,08,03,16,53,595.60
2007,08,03,16,54,591.90
2007,08,03,16,55,590.60
2007,08,03,16,56,587.00
2007,08,03,16,57,586.70
2007,08,03,16,58,583.80
2007,08,03,16,59,581.40
2007,08,03,17,00,577.10
2007,08,03,17,01,577.60
2007,08,03,17,02,574.60
2007,08,03,17,03,570.90
2007,08,03,17,04,569.60
2007,08,03,17,05,565.80
2007,08,03,17,06,563.60
2007,08,03,17,07,560.80
2007,08,03,17,08,559.00
2007,08,03,17,09,558.60
2007,08,03,17,10,554.60
2007,08,03,17,11,551.80
2007,08,03,17,12,549.40
2007,08,03,17,13,544.80
2007,08,03,17,14,542.80
2007,08,03,17,15,540.90
2007,08,03,17,16,539.50
2007,08,03,17,17,535.80
2007,08,03,17,18,533.90
2007,08,03,17,19,533.00
2007,08,03,17,20,532.30
2007,08,03,17,21,526.80
2007,08,03,17,22,523.80
2007,08,03,17,23,521.70
2007,08,03,17,24,518.80
2007,08,03,17,25,516.50
2007,08,03,17,26,512.70
2007,08,03,17,27,509.80
2007,08,03,17,28,507.80
2007,08,03,17,29,505.40
2007,08,03,17,30,500.80
2007,08,03,17,31,499.00
2007,08,03,17,32,498.40
2007,08,03,17,33,493.80
2007,08,03,17,34,491.70
2007,08,03,17,35,488.80
2007,08,03,17,36,486.80
2007,08,03,17,37,485.00
2007,08,03,17,38,484.50
2007,08,03,17,39,480.00
2007,08,03,17,40,479.60
2007,08,03,17,41,472.80
2007,08,03,17,42,470.80
2007,08,03,17,43,468.70
2007,08,03,17,44,465.50
2007,08,03,17,45,461.90
2007,08,03,17,46,460.60
2007,08,03,17,47,456.80
2007,08,03,17,48,453.60
2007,08,03,17,49,449.80
2007,08,03,17,50,447.80
2007,08,03,17,51,446.00
2007,08,03,17,52,445.10
2007,08,03,17,53,437.80
2007,08,03,17,54,435.90